x

East Hatteras - 150 Nm East Of Cape Hatteras (41001) Wave Buoy

10:50 - Sun 28th May 2017 All times are EDT. -4 hours from GMT.

  • Sig Wave height 5.9ft
  • Swell Direction
  • Peak Period 6s
  • Average Period 5s
  • Wind
    20mph, 25mph gusts
  • Sea Temp 76°f
  • Ar Temp 77°f
  • Sea Pressure 1011.8mb
  • East Hatteras - 150 Nm East Of Cape Hatteras
  • East Hatteras - 150 Nm East Of Cape Hatteras

More Historic Weather Station data

Upgrade to MSW Pro to gain access to the past 30 days of data for over 8000 Wavebouys and Weather Stations around the globe.

Join Pro

Comparision Forecast

View Surf forecast
   
Dom 05/28 10:50 6ft 6s 5s 20 25 mph 1011.8mb 76f 77f
10:40 6ft  -  5s 20 27 mph 1011.9mb 76f 77f
10:30  -   -   -  20 27 mph 1011.9mb 76f 77f
10:20  -   -   -  20 25 mph 1012mb 76f 77f
10:10  -   -   -  20 25 mph 1011.9mb 76f 77f
10:00  -   -   -  20 25 mph 1012.1mb 76f 77f
9:50 5ft 6s 5s 20 25 mph 1012.1mb 76f 77f
9:40 5ft  -  5s 20 25 mph 1012mb 76f 77f
9:30  -   -   -  20 25 mph 1012mb 76f 77f
9:20  -   -   -  18 22 mph 1012mb 76f 77f
9:10  -   -   -  20 25 mph 1012mb - 77f
9:00  -   -   -  20 25 mph 1012mb 76f 77f
8:50 5ft 6s 5s 20 25 mph 1012mb 76f 77f
8:40 5ft  -  5s 20 25 mph 1012.1mb 76f 77f
8:30  -   -   -  20 27 mph 1012.3mb 75f 77f
8:20  -   -   -  20 25 mph 1012.4mb 75f 76f
8:10  -   -   -  18 25 mph 1012.4mb 75f 76f
8:00  -   -   -  18 22 mph 1012.3mb - 76f
7:50 4.5ft 6s 5s 18 25 mph 1012.5mb 75f 76f
7:40 4.5ft  -  5s 18 25 mph 1012.5mb 75f 76f
7:30  -   -   -  20 25 mph 1012.5mb 75f 76f
7:20  -   -   -  20 27 mph 1012.5mb 75f 76f
7:10  -   -   -  20 22 mph 1012.5mb 75f 76f
7:00  -   -   -  20 25 mph 1012.5mb 75f 76f
6:50 4.5ft 6s 5s 18 22 mph 1012.4mb 75f 76f
6:40  -   -   -  18 22 mph 1012.5mb 75f 76f
6:30  -   -   -  18 22 mph 1012.4mb - 76f
6:20  -   -   -  18 22 mph 1012mb 75f 76f
6:10  -   -   -  18 22 mph 1012.1mb 75f 76f
6:00  -   -   -  18 22 mph 1012.1mb 75f 76f
5:50 5ft 6s 5s 18 20 mph 1012.1mb 75f 76f
5:40  -   -   -  18 22 mph 1012.1mb 75f 76f
5:30  -   -   -  18 22 mph 1012.1mb 75f 76f
5:20  -   -   -  18 22 mph 1012.1mb 75f 76f
5:10  -   -   -  18 22 mph 1012.1mb 75f 76f
5:00  -   -   -  18 22 mph 1012.1mb 75f 76f
4:50 4.5ft 6s 5s 18 22 mph 1012.1mb 75f 76f
4:40  -   -   -  20 22 mph 1012mb 75f 76f
4:30  -   -   -  18 25 mph 1012.1mb 75f 76f
4:20  -   -   -  18 22 mph 1012.3mb 75f 76f
4:10  -   -   -  18 22 mph 1012.5mb 75f 76f
4:00  -   -   -  18 22 mph 1012.4mb 75f 76f
3:50 4.5ft 6s 5s 18 25 mph 1012.5mb 75f 76f
3:40  -   -   -  18 22 mph 1012.6mb 75f 76f
3:30  -   -   -  18 22 mph 1012.8mb 75f 76f
3:20  -   -   -  18 25 mph 1012.6mb 75f 76f
3:10  -   -   -  18 22 mph 1013mb 75f 76f
3:00  -   -   -  18 22 mph 1013mb 75f 76f
2:50 4.5ft 6s 5s 18 22 mph 1013mb 75f 76f
2:40  -   -   -  18 22 mph 1013.3mb 75f 76f
2:30  -   -   -  18 22 mph 1013.5mb 75f 76f
2:20  -   -   -  18 22 mph 1013.5mb 75f 76f
2:10  -   -   -  18 22 mph 1013.5mb 75f 76f
2:00  -   -   -  18 22 mph 1013.8mb 75f 76f
1:50 4.5ft 5s 5s 18 22 mph 1013.8mb 75f 76f
1:40  -   -   -  18 22 mph 1013.8mb 75f 76f
1:30  -   -   -  18 22 mph 1014mb 75f 76f
1:20  -   -   -  18 20 mph 1014mb 75f 76f
1:10  -   -   -  18 22 mph 1014mb 75f 76f
1:00  -   -   -  18 22 mph 1014mb 75f 76f
12:50 4.5ft 6s 5s 18 20 mph 1013.9mb 75f 76f
12:40 4.5ft  -  5s 18 20 mph 1013.9mb 75f 76f
12:30  -   -   -  16 20 mph 1014mb 75f 76f
12:20  -   -   -  16 20 mph 1014mb 75f 76f
12:10  -   -   -  18 20 mph 1014.1mb 75f 76f
12:00  -   -   -  16 20 mph 1014.3mb 75f 76f
11:50 4.5ft 6s 5s 18 20 mph 1014.3mb 75f 76f
11:40  -   -   -  18 22 mph 1014mb 75f 76f
11:30  -   -   -  18 22 mph 1014mb 75f 76f
11:20  -   -   -  18 22 mph 1013.8mb 75f 76f
11:10  -   -   -  18 20 mph 1013.6mb 75f 76f
11:00  -   -   -  16 20 mph 1013.6mb 75f 76f
10:50 4.5ft 6s 5s 16 20 mph 1013.6mb 75f 76f
10:40 4.5ft  -  5s 16 20 mph 1013.6mb 75f 76f
10:30  -   -   -  16 20 mph 1013.6mb 75f 76f
10:20  -   -   -  16 20 mph 1013.5mb 75f 76f
10:10  -   -   -  16 20 mph 1013.3mb 75f 76f
10:00  -   -   -  13 18 mph 1013.1mb 75f 76f
9:50 4.5ft 6s 5s 13 16 mph 1013mb 75f 76f
9:40  -   -   -  13 20 mph 1013mb 75f 76f
9:30  -   -   -  16 20 mph 1013mb 75f 76f
9:20  -   -   -  16 18 mph 1013mb 75f 76f
9:10  -   -   -  16 20 mph 1013.1mb 75f 76f
9:00  -   -   -  16 20 mph 1013.3mb 75f 76f
8:50 4.5ft 6s 5s 13 18 mph 1013.5mb 75f 76f
8:40 4.5ft  -  5s 13 18 mph 1013.5mb 75f 76f
8:30  -   -   -  13 18 mph 1013.4mb 75f 76f
8:20  -   -   -  13 18 mph 1013.4mb 75f 76f
8:10  -   -   -  16 18 mph 1013mb 75f 76f
8:00  -   -   -  13 18 mph 1013mb 75f 76f
7:50 4.5ft 5s 5s 13 18 mph 1013.1mb 75f 76f
7:40  -   -   -  16 20 mph 1013.1mb 75f 76f
7:30  -   -   -  16 18 mph 1013.3mb 75f 76f
7:20  -   -   -  16 18 mph 1013mb 75f 76f
7:10  -   -   -  16 20 mph 1012.8mb 75f 76f
7:00  -   -   -  16 20 mph 1012.6mb 75f 76f
6:50 4.5ft 6s 5s 16 20 mph 1012.5mb - 76f
6:40 4.5ft  -  5s 16 20 mph 1012.4mb 75f 76f
6:30  -   -   -  16 20 mph 1012.4mb 75f 76f
6:20  -   -   -  18 20 mph 1011.7mb 75f 76f
6:10  -   -   -  16 20 mph 1012.3mb 75f 76f
6:00  -   -   -  16 20 mph 1012mb 75f 76f
5:50 4.5ft 5s 5s 16 20 mph 1012mb 75f 76f
5:40 4.5ft  -  5s 18 22 mph 1011.9mb 75f 76f
5:30  -   -   -  18 22 mph 1011.6mb 75f 76f
5:20  -   -   -  18 22 mph 1011.5mb 75f 76f
5:10  -   -   -  20 25 mph 1011.4mb 75f 76f
5:00  -   -   -  20 25 mph 1011.3mb 75f 76f
4:50 4.5ft 7s 5s 18 22 mph 1011.4mb - 76f
4:40 4.5ft  -  5s 20 22 mph 1011.5mb 76f 76f
4:30  -   -   -  18 25 mph 1011.4mb 76f 76f
4:20  -   -   -  18 22 mph 1011.5mb 76f 76f
4:10  -   -   -  18 22 mph 1011.6mb 76f 76f
4:00  -   -   -  18 20 mph 1011.9mb 76f 76f
3:50 4.5ft 7s 5s 18 22 mph 1012mb 76f 76f
3:40 4.5ft  -  5s 18 22 mph 1012.1mb 76f 76f
3:30  -   -   -  18 20 mph 1012.4mb 76f 76f
3:20  -   -   -  18 22 mph 1012.5mb 76f 76f
3:10  -   -   -  18 22 mph 1012.8mb 76f 76f
3:00  -   -   -  18 22 mph 1012.8mb 76f 76f
2:50 4.5ft 5s 5s 18 22 mph 1013mb 76f 76f
2:40  -   -   -  18 22 mph 1013.1mb 76f 76f
2:30  -   -   -  16 22 mph 1013.5mb 76f 76f
2:20  -   -   -  18 22 mph 1013.5mb 76f 76f
2:10  -   -   -  18 22 mph 1013.5mb 75f 76f
2:00  -   -   -  18 22 mph 1013.5mb 75f 76f
1:50 4.5ft 5s 5s 18 22 mph 1013.9mb 75f 76f
1:30  -   -   -  20 25 mph 1014mb 75f 76f
1:20  -   -   -  18 25 mph 1014mb 75f 76f
1:10  -   -   -  18 22 mph 1014.1mb 75f 76f
1:00  -   -   -  18 22 mph 1014mb 75f 76f
12:50 4ft 7s 5s 18 20 mph 1014.1mb 75f 76f
12:40 4ft  -  5s 16 20 mph 1013.9mb 75f 76f
12:30  -   -   -  16 20 mph 1013.8mb 75f 76f
12:20  -   -   -  16 20 mph 1013.9mb 75f 76f
12:10  -   -   -  18 22 mph 1014.4mb 75f 76f
12:00  -   -   -  18 20 mph 1014.5mb 75f 76f
Sáb 05/27 11:50 4ft 7s 5s 16 20 mph 1014.8mb 75f 76f
11:40  -   -   -  16 20 mph 1014.5mb 75f 76f
11:30  -   -   -  16 18 mph 1014.6mb 75f 76f
11:20  -   -   -  16 20 mph 1014.6mb 75f 76f
11:10  -   -   -  16 18 mph 1014.6mb 75f 76f
11:00  -   -   -  16 18 mph 1014.6mb 75f 76f
10:50 4ft 7s 5s 16 18 mph 1014.5mb 75f 76f
10:40  -   -   -  16 18 mph 1014.5mb 75f 76f
10:30  -   -   -  16 18 mph 1014.5mb 75f 76f
10:20  -   -   -  16 18 mph 1014.5mb 75f 76f
10:10  -   -   -  13 18 mph 1014.4mb 75f 76f
10:00  -   -   -  13 18 mph 1014.3mb - 76f
9:50 4.5ft 7s 5s 16 18 mph 1014.4mb 76f 76f
9:40  -   -   -  16 18 mph 1014.5mb 76f 76f
9:30  -   -   -  16 18 mph 1014.4mb 76f 76f
9:20  -   -   -  16 18 mph 1014.4mb 76f 76f
9:10  -   -   -  16 20 mph 1014.3mb 76f 76f
9:00  -   -   -  16 18 mph 1014.3mb 76f 76f
8:50 4ft 7s 5s 16 20 mph 1014.1mb 76f 76f
8:40  -   -   -  16 20 mph 1014mb 76f 77f
8:30  -   -   -  16 20 mph 1014mb 76f 77f
8:20  -   -   -  16 18 mph 1014mb 76f 77f
8:10  -   -   -  16 18 mph 1013.9mb 76f 77f
8:00  -   -   -  16 20 mph 1014mb 76f 77f
7:50 4.5ft 7s 5s 16 18 mph 1014mb 76f 77f
7:40 4.5ft  -  5s 16 18 mph 1014mb 76f 77f
7:30  -   -   -  16 20 mph 1013.9mb 76f 77f
7:20  -   -   -  16 18 mph 1014mb 76f 77f
7:10  -   -   -  16 18 mph 1014mb 76f 77f
7:00  -   -   -  16 20 mph 1013.9mb 76f 77f
6:50 4ft 7s 5s 16 20 mph 1013.8mb 76f 77f
6:40  -   -   -  16 18 mph 1013.8mb 76f 77f
6:30  -   -   -  16 18 mph 1014mb 76f 77f
6:20  -   -   -  16 18 mph 1014mb 76f 77f
6:10  -   -   -  16 18 mph 1014mb 76f 77f
6:00  -   -   -  16 18 mph 1014mb 77f 77f
5:50 4ft 7s 5s 13 18 mph 1014.1mb 77f 77f
5:40  -   -   -  13 18 mph 1014.3mb 76f 77f
5:30  -   -   -  16 18 mph 1014.4mb 76f 77f
5:20  -   -   -  13 18 mph 1014.4mb 76f 77f
5:10  -   -   -  13 18 mph 1014.4mb 76f 77f
5:00  -   -   -  13 16 mph 1014.5mb 76f 77f
4:50 4.5ft 6s 5s 13 16 mph 1014.5mb 77f 77f
4:40 4.5ft  -  5s 13 16 mph 1014.4mb 76f 77f
4:30  -   -   -  13 18 mph 1013.7mb 77f 77f
4:20  -   -   -  13 16 mph 1014.4mb 77f 77f
4:10  -   -   -  13 16 mph 1014.5mb 77f 77f
4:00  -   -   -  13 16 mph 1014.5mb 77f 77f
3:50 4.5ft 7s 5s 11 16 mph 1014.5mb 77f 77f
3:40 4.5ft  -  5s 13 16 mph 1014.6mb 77f 77f
3:30  -   -   -  13 16 mph 1014.6mb 77f 77f
3:20  -   -   -  11 13 mph 1014.9mb 77f 77f
3:10  -   -   -  11 16 mph 1014.9mb 77f 77f
3:00  -   -   -  11 13 mph 1015mb 77f 77f
2:50 4.5ft 6s 5s 13 16 mph 1015mb 77f 77f
2:40  -   -   -  11 16 mph 1015mb 77f 77f
2:30  -   -   -  11 13 mph 1015mb 77f 77f
2:20  -   -   -  11 13 mph 1015mb 77f 77f
2:10  -   -   -  11 13 mph 1015.1mb 77f 77f
2:00  -   -   -  11 13 mph 1015.1mb 77f 77f
1:50 4.5ft 7s 6s 11 13 mph 1015.1mb 77f 77f
1:40 4.5ft  -  6s 11 13 mph 1015.3mb 77f 77f
1:30  -   -   -  11 13 mph 1015.3mb 77f 77f
1:20  -   -   -  11 13 mph 1015.1mb 76f 77f
1:10  -   -   -  11 13 mph 1015.1mb 77f 77f
1:00  -   -   -  11 13 mph 1015.3mb 76f 77f
12:50 4.5ft 7s 6s 11 13 mph 1015.4mb 76f 77f
12:40  -   -   -  11 13 mph 1015.4mb 77f 77f
12:30  -   -   -  11 13 mph 1015.5mb 76f 77f
12:20  -   -   -  11 13 mph 1015.5mb 76f 77f
12:10  -   -   -  11 13 mph 1015.5mb 76f 77f
12:00  -   -   -  9 13 mph 1015.5mb 76f 77f
11:50 4.5ft 8s 6s 9 13 mph 1015.4mb 76f 77f
11:40  -   -   -  9 13 mph 1015.5mb 76f 77f
11:30  -   -   -  11 13 mph 1015.5mb 76f 77f
11:20  -   -   -  11 13 mph 1015.4mb 76f 77f
11:10  -   -   -  9 13 mph 1015.4mb 76f 77f
11:00  -   -   -  9 13 mph 1015.3mb 76f 77f
10:50 5ft 8s 6s 9 11 mph 1015.1mb 76f 77f
10:40  -   -   -  9 11 mph 1015.1mb 76f 77f
10:30  -   -   -  9 13 mph 1015mb 76f 77f
10:20  -   -   -  9 13 mph 1015.1mb 77f 77f
10:10  -   -   -  9 11 mph 1015mb 77f 77f
10:00  -   -   -  9 11 mph 1015mb 77f 76f
9:50 5.5ft 8s 6s 9 13 mph 1015.3mb 77f 77f
9:40  -   -   -  11 13 mph 1015.3mb 77f 77f
9:30  -   -   -  11 13 mph 1015.5mb 77f 77f
9:20  -   -   -  11 13 mph 1015.5mb - 77f
9:10  -   -   -  11 16 mph 1015.5mb 77f 77f
9:00  -   -   -  13 16 mph 1015.5mb - 76f
8:50 5ft 8s 6s 13 16 mph 1015.5mb 77f 77f
8:40 5ft  -  6s 13 16 mph 1015.5mb 77f 76f
8:30  -   -   -  13 16 mph 1015.5mb 77f 76f
8:20  -   -   -  13 16 mph 1015.4mb 77f 76f
8:10  -   -   -  13 16 mph 1015.3mb 77f 76f
8:00  -   -   -  13 18 mph 1015.3mb 77f 76f
7:50 5.5ft 7s 6s 13 18 mph 1015.1mb 77f 76f
7:40 5.5ft  -  6s 16 18 mph 1015mb - 76f
7:30  -   -   -  13 18 mph 1014.9mb 77f 76f
7:20  -   -   -  13 18 mph 1015mb 77f 76f
7:10  -   -   -  16 18 mph 1014.9mb 77f 76f
7:00  -   -   -  13 18 mph 1014.8mb - 76f
6:50 6ft 7s 6s 13 18 mph 1014.6mb 77f 76f
6:40 6ft  -  6s 13 18 mph 1014.5mb 77f 76f
6:30  -   -   -  13 18 mph 1014.5mb 77f 76f
6:20  -   -   -  16 18 mph 1014.5mb 77f 76f
6:10  -   -   -  16 18 mph 1014.4mb 77f 76f
6:00  -   -   -  16 18 mph 1014.1mb 77f 76f
5:50 6ft 8s 6s 16 20 mph 1014.1mb 77f 76f
5:40  -   -   -  16 20 mph 1014.1mb 77f 76f
5:30  -   -   -  16 20 mph 1014mb 77f 76f
5:20  -   -   -  16 18 mph 1014mb 77f 76f
5:10  -   -   -  16 20 mph 1014mb 77f 77f
5:00  -   -   -  16 20 mph 1014mb 77f 76f
4:50 7ft 8s 6s 18 20 mph 1014mb 77f 76f
4:40 7ft  -  6s 18 20 mph 1014.1mb 77f 76f
4:30  -   -   -  18 22 mph 1014.1mb 77f 76f
4:20  -   -   -  16 20 mph 1014mb 77f 76f
4:10  -   -   -  18 22 mph 1014.1mb 77f 76f
4:00  -   -   -  18 22 mph 1014.1mb 77f 76f
3:50 6ft 8s 5s 18 22 mph 1014.1mb 77f 76f
3:40 6ft  -  5s 18 22 mph 1014.1mb 77f 76f
3:30  -   -   -  18 22 mph 1014.1mb 77f 76f
3:20  -   -   -  18 22 mph 1014.1mb 77f 76f
3:10  -   -   -  18 25 mph 1014.3mb 77f 76f
3:00  -   -   -  18 22 mph 1014.1mb 77f 76f
2:50 7.5ft 8s 6s 18 22 mph 1014.3mb 77f 76f
2:40 7.5ft  -  6s 18 22 mph 1014.4mb 77f 76f
2:30  -   -   -  18 22 mph 1014.4mb 77f 76f
2:20  -   -   -  18 22 mph 1014.5mb 77f 76f
2:10  -   -   -  18 22 mph 1014.5mb 77f 76f
2:00  -   -   -  18 22 mph 1014.5mb 77f 76f
1:50 7ft 8s 6s 16 20 mph 1014.5mb 77f 76f
1:40  -   -   -  18 22 mph 1014.5mb 77f 76f
1:30  -   -   -  18 22 mph 1014.5mb 77f 76f
1:20  -   -   -  16 20 mph 1014.5mb 77f 76f
1:10  -   -   -  16 20 mph 1014.6mb 77f 76f
1:00  -   -   -  18 22 mph 1014.6mb 77f 76f
12:50 7ft 8s 6s 18 22 mph 1014.8mb 77f 76f
12:40 7ft  -  6s 18 25 mph 1014.9mb 77f 76f
12:30  -   -   -  18 22 mph 1014.9mb 77f 76f
12:20  -   -   -  18 22 mph 1014.9mb 77f 76f
12:10  -   -   -  18 22 mph 1014.9mb 77f 76f
12:00  -   -   -  18 22 mph 1014.9mb 77f 76f
Sex 05/26 11:50 7.5ft 8s 6s 18 22 mph 1014.6mb 77f 76f
11:40 7.5ft  -  6s 20 25 mph 1014.6mb 77f 76f
11:30  -   -   -  20 25 mph 1014.6mb 77f 76f
11:20  -   -   -  20 25 mph 1014.6mb 77f 76f
11:10  -   -   -  20 25 mph 1014.6mb 77f 76f
11:00  -   -   -  20 25 mph 1014.5mb 77f 76f
10:50 8ft 8s 6s 18 22 mph 1014.5mb 77f 76f
10:40  -   -   -  20 25 mph 1014.5mb 77f 76f
10:30  -   -   -  20 25 mph 1014.4mb 77f 76f
10:20  -   -   -  20 25 mph 1014.4mb 77f 76f
10:10  -   -   -  20 25 mph 1014.1mb 77f 76f
10:00  -   -   -  20 27 mph 1014mb 77f 76f
9:50 7.5ft 8s 6s 20 25 mph 1014mb 77f 76f
9:40  -   -   -  20 27 mph 1013.9mb 77f 76f
9:30  -   -   -  20 22 mph 1013.8mb 77f 76f
9:20  -   -   -  18 25 mph 1013.8mb 77f 76f
9:10  -   -   -  18 25 mph 1013.5mb 77f 76f
9:00  -   -   -  20 27 mph 1013.5mb 77f 76f
8:50 8ft 8s 6s 20 25 mph 1013.5mb 77f 76f
8:40  -   -   -  20 27 mph 1013.5mb 77f 76f
8:30  -   -   -  22 27 mph 1013.5mb 77f 76f
8:20  -   -   -  20 25 mph 1013.5mb 77f 76f
8:10  -   -   -  20 27 mph 1013.5mb 77f 76f
8:00  -   -   -  20 27 mph 1013.5mb 77f 76f
7:50 8.5ft 8s 6s 20 25 mph 1013.4mb 77f 76f
7:40 8.5ft  -  6s 20 27 mph 1013.3mb 77f 76f
7:30  -   -   -  22 29 mph 1013.1mb 77f 76f
7:20  -   -   -  22 27 mph 1013.1mb 77f 76f
7:10  -   -   -  20 27 mph 1013mb 77f 76f
7:00  -   -   -  20 27 mph 1012.9mb 77f 76f
6:50 9.5ft 8s 6s 22 29 mph 1012.8mb 77f 76f
6:40 9.5ft  -  6s 22 29 mph 1012.6mb 77f 76f
6:30  -   -   -  20 29 mph 1012.5mb 77f 76f
6:20  -   -   -  22 27 mph 1012.5mb 77f 76f
6:10  -   -   -  22 27 mph 1012.3mb 77f 76f
6:00  -   -   -  22 29 mph 1012.4mb 77f 76f
5:50 9.5ft 9s 6s 22 29 mph 1012.3mb 77f 76f
5:40 9.5ft  -  6s 22 29 mph 1012.1mb 77f 76f
5:30  -   -   -  22 31 mph 1012.1mb 77f 76f
5:20  -   -   -  22 29 mph 1012.1mb 77f 76f
5:10  -   -   -  25 31 mph 1012mb 77f 76f
5:00  -   -   -  25 31 mph 1011.9mb 77f 76f
4:50 10.5ft 9s 7s 25 31 mph 1012mb 77f 76f
4:40 10.5ft  -  7s 25 31 mph 1011.8mb 77f 76f
4:30  -   -   -  25 29 mph 1011.8mb 77f 76f
4:20  -   -   -  25 29 mph 1011.8mb 77f 76f
4:10  -   -   -  25 29 mph 1011.8mb 77f 76f
4:00  -   -   -  22 29 mph 1011.9mb 77f 76f
3:50 10.5ft 9s 7s 25 29 mph 1011.9mb 77f 76f
3:40  -   -   -  22 29 mph 1011.9mb 77f 76f
3:30  -   -   -  22 31 mph 1011.9mb 77f 76f
3:20  -   -   -  22 27 mph 1012mb 77f 76f
3:10  -   -   -  22 29 mph 1012mb 77f 76f
3:00  -   -   -  22 29 mph 1012.1mb 77f 76f
2:50 11ft 9s 7s 22 29 mph 1012mb 77f 76f
2:40 11ft  -  7s 22 27 mph 1012.1mb 77f 76f
2:30  -   -   -  20 27 mph 1012.3mb 77f 76f
2:20  -   -   -  22 29 mph 1012.3mb 77f 76f
2:10  -   -   -  22 31 mph 1012.3mb 77f 76f
2:00  -   -   -  22 29 mph 1012.3mb 77f 76f
1:30  -   -   -  22 29 mph 1012.4mb 77f 76f
1:20  -   -   -  22 31 mph 1012.4mb 77f 76f
1:10  -   -   -  22 29 mph 1012.5mb 77f 76f
1:00  -   -   -  22 29 mph 1012.4mb 77f 76f
12:50 11ft 9s 7s 22 29 mph 1012.4mb 77f 76f
12:40 11ft  -  7s 22 29 mph 1012.5mb 77f 76f
12:30  -   -   -  25 31 mph 1012.5mb 77f 76f
12:20  -   -   -  25 31 mph 1012.5mb 77f 76f
12:10  -   -   -  25 31 mph 1012.5mb 77f 76f
12:00  -   -   -  25 31 mph 1012.5mb 77f 76f
11:50 12ft 10s 7s 25 29 mph 1012.5mb 77f 76f
11:40 12ft  -  7s 25 31 mph 1012.5mb 77f 76f
11:30  -   -   -  27 31 mph 1012.5mb 77f 76f
11:20  -   -   -  27 31 mph 1012.5mb 77f 76f
11:10  -   -   -  25 31 mph 1012.5mb 77f 76f
11:00  -   -   -  27 34 mph 1012.3mb 77f 76f
10:50 12ft 9s 7s 27 36 mph 1012.3mb 77f 76f
10:40  -   -   -  27 36 mph 1012.1mb 77f 76f
10:30  -   -   -  27 36 mph 1012.1mb 77f 76f
10:20  -   -   -  27 34 mph 1012.1mb 77f 76f
10:10  -   -   -  27 34 mph 1012.1mb 77f 76f
10:00  -   -   -  27 34 mph 1012mb 77f 76f
9:50 11.5ft 10s 7s 29 36 mph 1012mb 77f 76f
9:40  -   -   -  27 34 mph 1012mb 77f 76f
9:30  -   -   -  27 36 mph 1011.9mb 77f 76f
9:20  -   -   -  27 36 mph 1011.9mb 77f 75f
9:10  -   -   -  29 36 mph 1011.8mb 77f 75f
9:00  -   -   -  27 36 mph 1011.8mb 77f 75f
8:50 11ft 10s 7s 27 36 mph 1011.9mb 77f 75f
8:40 11ft  -  7s 27 34 mph 1011.8mb 77f 75f
8:30  -   -   -  27 36 mph 1011.9mb 77f 75f
8:20  -   -   -  27 36 mph 1011.6mb 77f 75f
8:10  -   -   -  27 36 mph 1011.6mb 76f 75f
8:00  -   -   -  27 36 mph 1011.5mb 76f 75f
7:50 14ft 10s 8s 27 36 mph 1011.5mb 76f 75f
7:40  -   -   -  27 36 mph 1011.4mb 76f 75f
7:30  -   -   -  27 36 mph 1011.4mb 76f 75f
7:20  -   -   -  27 36 mph 1011.1mb 76f 75f
7:10  -   -   -  27 34 mph 1011.1mb 76f 75f
7:00  -   -   -  22 29 mph 1011.1mb 76f 74f
6:50 12ft 10s 7s 25 31 mph 1011mb 76f 74f
6:40 12ft  -  7s 27 34 mph 1011mb 76f 74f
6:30  -   -   -  25 34 mph 1010.9mb 76f 75f
6:20  -   -   -  25 31 mph 1010.9mb 76f 75f
6:10  -   -   -  27 34 mph 1010.8mb 76f 75f
6:00  -   -   -  25 34 mph 1010.6mb - 75f
5:50 14ft 10s 7s 27 34 mph 1010.5mb 76f 75f
5:40  -   -   -  25 31 mph 1010.4mb 76f 75f
5:30  -   -   -  27 34 mph 1010.4mb 76f 75f
5:20  -   -   -  25 31 mph 1010.1mb 76f 75f
5:10  -   -   -  25 31 mph 1010.1mb 76f 75f
5:00  -   -   -  29 36 mph 1010mb 76f 75f
4:50 14.5ft 10s 8s 27 36 mph 1009.8mb 75f 75f
4:40  -   -   -  25 34 mph 1009.8mb 76f 75f
4:30  -   -   -  25 29 mph 1009.9mb 76f 75f
4:20  -   -   -  27 36 mph 1009.8mb 76f 75f
4:10  -   -   -  27 34 mph 1009.8mb 76f 75f
4:00  -   -   -  25 34 mph 1009.6mb 76f 74f
3:50 15ft 10s 8s 25 31 mph 1009.6mb 76f 73f
3:40  -   -   -  27 36 mph 1009.9mb 76f 75f
3:30  -   -   -  25 34 mph 1009.5mb 76f 75f
3:20  -   -   -  25 31 mph 1009.5mb 76f 75f
3:10  -   -   -  27 36 mph 1009.5mb 76f 75f
3:00  -   -   -  25 34 mph 1009.5mb 76f 74f
2:50 14.5ft 10s 8s 25 31 mph 1009.8mb 76f 74f
2:40  -   -   -  27 36 mph 1009.5mb 76f 75f
2:30  -   -   -  27 34 mph 1009.5mb 76f 75f
2:20  -   -   -  27 34 mph 1009.8mb 76f 75f
2:10  -   -   -  27 34 mph 1009.5mb 76f 75f
2:00  -   -   -  29 36 mph 1009.5mb 76f 75f
1:50 14ft 9s 8s 27 34 mph 1009.5mb 76f 75f
1:40  -   -   -  27 36 mph 1009.5mb 76f 75f
1:30  -   -   -  27 34 mph 1009.5mb 76f 75f
1:20  -   -   -  27 34 mph 1009.5mb 76f 76f
1:10  -   -   -  27 36 mph 1009.5mb 76f 76f
1:00  -   -   -  27 36 mph 1009.5mb 76f 76f
12:50 13ft 10s 7s 27 34 mph 1009.5mb 76f 76f
12:40  -   -   -  27 34 mph 1009.5mb 76f 75f
12:30  -   -   -  29 36 mph 1009.5mb 76f 75f
12:20  -   -   -  27 38 mph 1009.3mb 76f 75f
12:10  -   -   -  31 40 mph 1009.3mb 76f 75f
12:00  -   -   -  29 36 mph 1009mb 76f 76f
Qui 05/25 11:50 13ft 10s 7s 29 40 mph 1009mb 76f 76f
11:40 13ft  -  7s 29 36 mph 1008.9mb 76f 76f
11:30  -   -   -  29 38 mph 1008.6mb 76f 76f
11:20  -   -   -  27 36 mph 1008.5mb 76f 76f
11:10  -   -   -  29 38 mph 1008.5mb 76f 76f
11:00  -   -   -  29 36 mph 1008.5mb 76f 76f
10:50 12.5ft 10s 7s 29 36 mph 1008.4mb 76f 76f
10:40 12.5ft  -  7s 29 38 mph 1008.1mb 76f 76f
10:30  -   -   -  34 40 mph 1008mb 76f 76f
10:20  -   -   -  29 40 mph 1007.9mb 76f 76f
10:10  -   -   -  29 40 mph 1007.6mb 76f 76f
10:00  -   -   -  29 38 mph 1007.5mb 76f 76f
9:50 11.5ft 10s 7s 25 36 mph 1007.4mb 76f 75f
9:40  -   -   -  25 34 mph 1007.1mb 76f 75f
9:30  -   -   -  25 34 mph 1006.9mb 76f 74f
9:20  -   -   -  25 31 mph 1006.6mb 76f 73f
9:10  -   -   -  25 38 mph 1006.5mb 76f 73f
9:00  -   -   -  25 34 mph 1006.5mb 76f 74f
8:50 13ft 11s 8s 25 36 mph 1006.3mb 76f 74f
8:40  -   -   -  27 36 mph 1006.1mb 76f 74f
8:30  -   -   -  29 36 mph 1006mb 76f 74f
8:20  -   -   -  31 40 mph 1006mb 76f 74f
8:10  -   -   -  31 40 mph 1006mb 76f 74f
8:00  -   -   -  29 36 mph 1005.6mb 76f 73f
7:50 13.5ft 11s 8s 29 36 mph 1005.6mb 76f 73f
7:40  -   -   -  27 36 mph 1005.9mb 76f 73f
7:30  -   -   -  27 34 mph 1006mb 76f 72f
7:20  -   -   -  27 36 mph 1005.9mb 76f 71f
7:10  -   -   -  27 34 mph 1006mb 76f 71f
7:00  -   -   -  27 36 mph 1005mb 76f 71f
6:50 12ft 10s 8s 27 34 mph 1005.5mb 76f 71f
6:40  -   -   -  29 36 mph 1006mb 76f 71f
6:30  -   -   -  27 34 mph 1006.5mb 76f 71f
6:20  -   -   -  25 34 mph 1006.4mb 76f 71f
6:10  -   -   -  25 34 mph 1006.5mb 76f 70f
6:00  -   -   -  20 29 mph 1005.9mb 76f 70f
5:50 12ft 9s 7s 18 25 mph 1006.6mb 76f 70f
5:40  -   -   -  20 27 mph 1008.1mb 76f 71f
5:30  -   -   -  18 27 mph 1008.1mb 76f 71f
5:20  -   -   -  20 27 mph 1008.5mb 76f 72f
5:10  -   -   -  22 31 mph 1008.6mb 76f 72f
5:00  -   -   -  25 34 mph 1009mb 76f 73f
4:50 13ft 10s 7s 27 34 mph 1008.5mb 76f 73f
4:40 13ft  -  7s 27 34 mph 1008.3mb 76f 74f
4:30  -   -   -  25 34 mph 1007.9mb 76f 75f
4:20  -   -   -  25 34 mph 1006.9mb 76f 76f
4:10  -   -   -  25 31 mph 1006.5mb 76f 76f
4:00  -   -   -  25 31 mph 1005.9mb 76f 76f
3:50 14ft 10s 8s 27 36 mph 1006.3mb 76f 75f
3:40 14ft  -  8s 29 36 mph 1006.5mb 76f 76f
3:30  -   -   -  27 38 mph 1006.8mb 76f 76f
3:20  -   -   -  27 34 mph 1006.9mb 76f 76f
3:10  -   -   -  27 34 mph 1006.6mb 75f 76f
3:00  -   -   -  29 36 mph 1006.4mb 75f 76f
2:50 14ft 10s 7s 29 38 mph 1006.4mb 75f 76f
2:40  -   -   -  29 38 mph 1006.5mb 75f 76f
2:30  -   -   -  27 34 mph 1006.8mb 75f 76f
2:20  -   -   -  29 36 mph 1007mb 75f 75f
2:10  -   -   -  31 40 mph 1007.3mb 75f 76f
2:00  -   -   -  29 36 mph 1007.5mb 75f 76f
1:50 13ft 10s 7s 27 36 mph 1007.5mb 75f 76f
1:40  -   -   -  27 36 mph 1008mb 75f 76f
1:30  -   -   -  27 36 mph 1008mb 75f 76f
1:20  -   -   -  31 40 mph 1007.9mb 75f 76f
1:10  -   -   -  29 40 mph 1008mb 75f 76f
1:00  -   -   -  29 38 mph 1008mb 75f 76f
12:50 12.5ft 9s 7s 29 38 mph 1007.9mb 75f 76f
12:40  -   -   -  29 40 mph 1007.5mb 75f 76f
12:30  -   -   -  29 36 mph 1007.6mb 75f 76f
12:20  -   -   -  29 36 mph 1008mb 75f 76f
12:10  -   -   -  27 34 mph 1008mb 75f 76f
12:00  -   -   -  27 36 mph 1008mb 75f 76f
11:50 13ft 9s 7s 27 34 mph 1008.4mb 75f 76f
11:40  -   -   -  25 34 mph 1008.3mb 75f 76f
11:30  -   -   -  25 34 mph 1008mb 75f 76f
11:20  -   -   -  25 34 mph 1008.4mb 75f 76f
11:10  -   -   -  25 34 mph 1008.4mb 75f 76f
11:00  -   -   -  25 31 mph 1008.4mb 75f 76f
10:50 12ft 9s 7s 25 31 mph 1008.4mb 75f 76f
10:40 12ft  -  7s 25 34 mph 1008.1mb 75f 76f
10:30  -   -   -  25 34 mph 1008mb 75f 76f
10:20  -   -   -  27 34 mph 1008mb 75f 76f
10:10  -   -   -  27 38 mph 1007.9mb 75f 76f
10:00  -   -   -  27 36 mph 1008mb 75f 76f
9:50 11.5ft 8s 7s 27 36 mph 1007.9mb 75f 76f
9:40  -   -   -  29 36 mph 1008mb 75f 76f
9:30  -   -   -  27 36 mph 1007.9mb 75f 76f
9:20  -   -   -  27 36 mph 1007.5mb 75f 76f
9:10  -   -   -  25 31 mph 1007.5mb 75f 76f
9:00  -   -   -  27 34 mph 1007.4mb 75f 76f
8:50 10ft 8s 7s 27 34 mph 1007.5mb 75f 76f
8:40  -   -   -  27 36 mph 1007.5mb 75f 76f
8:30  -   -   -  27 36 mph 1007.4mb 75f 77f
8:20  -   -   -  27 36 mph 1007.4mb 75f 77f
8:10  -   -   -  27 34 mph 1007.4mb 75f 76f
8:00  -   -   -  27 36 mph 1007.1mb 75f 76f
7:50 10ft 8s 7s 27 34 mph 1007mb 75f 76f
7:40  -   -   -  29 36 mph 1006.8mb 75f 77f
7:30  -   -   -  29 38 mph 1006.5mb 75f 76f
7:20  -   -   -  27 36 mph 1006.5mb 75f 76f
7:10  -   -   -  29 36 mph 1006.5mb 75f 75f
7:00  -   -   -  27 34 mph 1006.6mb 75f 76f
6:50 9.5ft 8s 6s 25 34 mph 1007mb 75f 75f
6:40  -   -   -  22 29 mph 1007.1mb 75f 75f
6:30  -   -   -  22 29 mph 1006.4mb 75f 75f
6:20  -   -   -  22 27 mph 1007.3mb 75f 74f
6:10  -   -   -  22 29 mph 1007.1mb 75f 74f
6:00  -   -   -  22 31 mph 1007.1mb 75f 73f
5:50 10ft 8s 6s 25 31 mph 1007.1mb 75f 73f
5:40  -   -   -  25 31 mph 1007.3mb 75f 73f
5:30  -   -   -  25 31 mph 1007.3mb 75f 73f
5:20  -   -   -  27 34 mph 1007mb 75f 73f
5:10  -   -   -  27 31 mph 1007.3mb 75f 72f
5:00  -   -   -  27 34 mph 1007.5mb 75f 73f
4:50 10ft 8s 7s 22 31 mph 1007.4mb 75f 72f
4:40  -   -   -  18 27 mph 1007.1mb 75f 72f
4:30  -   -   -  20 25 mph 1007.5mb 75f 72f
4:20  -   -   -  20 25 mph 1007.8mb 75f 71f
4:10  -   -   -  18 25 mph 1008.1mb 75f 71f
4:00  -   -   -  20 27 mph 1008.1mb 75f 71f